YAOGAN-43 02E (60949 NORAD) Tracking and Keplerian Element Data

This shows tracking and keplerian element data for the satellite.

Feedback or suggestion? Click here.




ElementValue
Catalog60949
NameYAOGAN-43 02E
Epoch Orbit603
Epoch Day286.87747258
Epoch Year2024
RAAN89.1434
Inclination34.9954
Eccentricity0.000881
Argument of Perigee272.7699
Mean Anonmoly87.2008
Mean Motion15.2350363
Decay Rate0.000451
L11 60949U 24156E 24286.87747258 .00045100 00000+0 18327-2 0 9998
L22 60949 34.9954 89.1434 0008810 272.7699 87.2008 15.23503630 6034



Live tracking and technical data element details for YAOGAN-43 02E (NORAD 60949). YAOGAN-43 02E can be tracked NOW for your location showing map with azimuth and elevation plus other details from your city location.







IsCatalogInMostPopularTable: catalog: 60949, numindb: 6
Update: records affected: 1



GetName: 60949 YAOGAN-43 02E

Hit Count: updated at: Tue, 03 Dec 2024 03:37:52 GMT